Previsão horária em Sendryuhovo

Hoje, 1 Dezembro, Terça-feira

Tempo Temperatura Precipitação Vento Pressão Humidade
00:00 -2°C° 0.2 mm 5 m/s 757 mmHg 94%
01:00 -2°C° 0.4 mm 5 m/s 757 mmHg 95%
02:00 -2°C° 0.4 mm 5 m/s 757 mmHg 95%
03:00 -2°C° 0.4 mm 5 m/s 758 mmHg 96%
04:00 -2°C° 0.3 mm 5 m/s 758 mmHg 96%
05:00 -2°C° 0.3 mm 5 m/s 758 mmHg 95%
06:00 -2°C° 0.3 mm 5 m/s 758 mmHg 95%
07:00 -3°C° 0.3 mm 4 m/s 758 mmHg 95%
08:00 -3°C° 0.3 mm 4 m/s 758 mmHg 95%
09:00 -3°C° 0.3 mm 4 m/s 759 mmHg 95%
10:00 -3°C° 0.2 mm 4 m/s 759 mmHg 94%
11:00 -3°C° 0.2 mm 4 m/s 759 mmHg 94%
12:00 -3°C° 0.2 mm 4 m/s 759 mmHg 94%
13:00 -3°C° 0.2 mm 4 m/s 759 mmHg 94%
14:00 -2°C° 0.2 mm 3 m/s 759 mmHg 94%
15:00 -2°C° 0.2 mm 3 m/s 760 mmHg 95%
16:00 -2°C° 0.1 mm 3 m/s 760 mmHg 95%
17:00 -2°C° 0.1 mm 3 m/s 760 mmHg 96%
18:00 -2°C° 0.1 mm 2 m/s 760 mmHg 96%
19:00 -3°C° 0.1 mm 2 m/s 760 mmHg 96%
20:00 -3°C° 0.1 mm 2 m/s 761 mmHg 96%
21:00 -3°C° 0.1 mm 2 m/s 761 mmHg 96%
22:00 -3°C° 0 mm 2 m/s 761 mmHg 96%
23:00 -3°C° 0 mm 2 m/s 761 mmHg 96%

Amanhã, 2 Dezembro, Quarta-feira

Tempo Temperatura Precipitação Vento Pressão Humidade
00:00 -3°C° 0 mm 2 m/s 761 mmHg 96%
01:00 -4°C° 0 mm 2 m/s 762 mmHg 96%
02:00 -4°C° 0 mm 2 m/s 762 mmHg 96%
03:00 -4°C° 0 mm 2 m/s 762 mmHg 95%
04:00 -2°C° 0 mm 1 m/s 762 mmHg 95%
05:00 -2°C° 0 mm 1 m/s 762 mmHg 95%
06:00 -2°C° 0 mm 1 m/s 762 mmHg 95%
07:00 -2°C° 0 mm 1 m/s 762 mmHg 95%
08:00 -2°C° 0 mm 1 m/s 762 mmHg 95%
09:00 -2°C° 0 mm 1 m/s 763 mmHg 94%
10:00 -1°C° 0 mm 1 m/s 763 mmHg 93%
11:00 -1°C° 0 mm 1 m/s 763 mmHg 92%
12:00 -1°C° 0 mm 1 m/s 763 mmHg 91%
13:00 -1°C° 0 mm 1 m/s 763 mmHg 92%
14:00 -1°C° 0 mm 1 m/s 762 mmHg 92%
15:00 -1°C° 0 mm 1 m/s 762 mmHg 93%
16:00 -1°C° 0 mm 1 m/s 762 mmHg 93%
17:00 -2°C° 0 mm 1 m/s 762 mmHg 94%
18:00 -3°C° 0 mm 1 m/s 762 mmHg 94%
19:00 -5°C° 0 mm 2 m/s 762 mmHg 94%
20:00 -5°C° 0 mm 2 m/s 762 mmHg 94%
21:00 -6°C° 0 mm 2 m/s 762 mmHg 94%
22:00 -6°C° 0 mm 2 m/s 762 mmHg 93%
23:00 -6°C° 0 mm 2 m/s 762 mmHg 93%

Depois de amanhã, 3 Dezembro, Quinta-feira

Tempo Temperatura Precipitação Vento Pressão Humidade
00:00 -7°C° 0 mm 2 m/s 762 mmHg 93%
01:00 -7°C° 0 mm 2 m/s 762 mmHg 93%
02:00 -7°C° 0 mm 2 m/s 762 mmHg 92%
03:00 -7°C° 0 mm 2 m/s 762 mmHg 91%
04:00 -7°C° 0 mm 2 m/s 762 mmHg 90%
05:00 -7°C° 0 mm 2 m/s 762 mmHg 90%
06:00 -7°C° 0 mm 2 m/s 761 mmHg 89%
07:00 -7°C° 0 mm 2 m/s 761 mmHg 88%
08:00 -7°C° 0 mm 2 m/s 761 mmHg 87%
09:00 -7°C° 0 mm 2 m/s 761 mmHg 86%
10:00 -7°C° 0 mm 3 m/s 761 mmHg 84%
11:00 -7°C° 0 mm 3 m/s 761 mmHg 82%
12:00 -6°C° 0 mm 3 m/s 761 mmHg 80%
13:00 -6°C° 0 mm 3 m/s 761 mmHg 80%
14:00 -6°C° 0 mm 3 m/s 761 mmHg 80%
15:00 -6°C° 0 mm 3 m/s 760 mmHg 80%
16:00 -7°C° 0 mm 3 m/s 760 mmHg 80%
17:00 -7°C° 0 mm 3 m/s 760 mmHg 81%
18:00 -7°C° 0 mm 3 m/s 760 mmHg 81%
19:00 -8°C° 0 mm 3 m/s 760 mmHg 80%
20:00 -8°C° 0 mm 3 m/s 760 mmHg 79%
21:00 -8°C° 0 mm 3 m/s 760 mmHg 78%
22:00 -8°C° 0 mm 3 m/s 760 mmHg 79%
23:00 -8°C° 0 mm 3 m/s 760 mmHg 80%

4 Dezembro, Sexta-feira

Tempo Temperatura Precipitação Vento Pressão Humidade
00:00 -8°C° 0 mm 3 m/s 760 mmHg 80%
01:00 -8°C° 0.1 mm 3 m/s 760 mmHg 84%
02:00 -8°C° 0.1 mm 3 m/s 760 mmHg 87%
03:00 -8°C° 0.1 mm 3 m/s 760 mmHg 90%
04:00 -8°C° 0.2 mm 3 m/s 760 mmHg 91%
05:00 -8°C° 0.2 mm 3 m/s 760 mmHg 92%
06:00 -8°C° 0.2 mm 3 m/s 760 mmHg 93%
07:00 -8°C° 0.1 mm 3 m/s 760 mmHg 92%
08:00 -8°C° 0.1 mm 3 m/s 760 mmHg 91%
09:00 -8°C° 0.1 mm 3 m/s 760 mmHg 91%
10:00 -8°C° 0 mm 3 m/s 760 mmHg 90%
11:00 -8°C° 0 mm 3 m/s 760 mmHg 89%
12:00 -8°C° 0 mm 3 m/s 760 mmHg 88%
13:00 -8°C° 0 mm 3 m/s 760 mmHg 89%
14:00 -8°C° 0 mm 3 m/s 761 mmHg 90%
15:00 -8°C° 0 mm 3 m/s 761 mmHg 91%
16:00 -8°C° 0 mm 3 m/s 761 mmHg 91%
17:00 -8°C° 0 mm 3 m/s 761 mmHg 92%
18:00 -8°C° 0 mm 3 m/s 761 mmHg 92%
19:00 -8°C° 0 mm 3 m/s 761 mmHg 92%
20:00 -8°C° 0 mm 3 m/s 761 mmHg 92%
21:00 -8°C° 0 mm 3 m/s 761 mmHg 93%
22:00 -8°C° 0 mm 3 m/s 761 mmHg 93%
23:00 -8°C° 0 mm 3 m/s 761 mmHg 93%

5 Dezembro, Sábado

Tempo Temperatura Precipitação Vento Pressão Humidade
00:00 -8°C° 0 mm 3 m/s 761 mmHg 92%
01:00 -8°C° 0.1 mm 3 m/s 761 mmHg 92%
02:00 -8°C° 0.1 mm 3 m/s 761 mmHg 92%
03:00 -8°C° 0.1 mm 3 m/s 761 mmHg 92%
04:00 -8°C° 0 mm 3 m/s 761 mmHg 91%
05:00 -8°C° 0 mm 3 m/s 761 mmHg 91%
06:00 -8°C° 0 mm 3 m/s 761 mmHg 90%
07:00 -8°C° 0 mm 3 m/s 761 mmHg 90%
08:00 -8°C° 0 mm 3 m/s 761 mmHg 90%
09:00 -8°C° 0 mm 3 m/s 761 mmHg 90%
10:00 -9°C° 0 mm 4 m/s 761 mmHg 90%
11:00 -8°C° 0 mm 4 m/s 761 mmHg 89%
12:00 -8°C° 0 mm 4 m/s 761 mmHg 89%
13:00 -7°C° 0 mm 3 m/s 761 mmHg 89%
14:00 -7°C° 0 mm 3 m/s 761 mmHg 89%
15:00 -7°C° 0 mm 3 m/s 762 mmHg 88%
16:00 -7°C° 0 mm 3 m/s 762 mmHg 88%
17:00 -8°C° 0 mm 4 m/s 762 mmHg 87%
18:00 -8°C° 0 mm 4 m/s 762 mmHg 86%
19:00 -8°C° 0 mm 4 m/s 762 mmHg 83%
20:00 -8°C° 0 mm 4 m/s 762 mmHg 81%
21:00 -8°C° 0 mm 4 m/s 762 mmHg 78%
22:00 -9°C° 0 mm 4 m/s 762 mmHg 79%
23:00 -9°C° 0 mm 4 m/s 762 mmHg 79%

6 Dezembro, Domingo

Tempo Temperatura Precipitação Vento Pressão Humidade
00:00 -8°C° 0 mm 3 m/s 762 mmHg 80%
01:00 -8°C° 0 mm 3 m/s 762 mmHg 80%
02:00 -8°C° 0 mm 3 m/s 762 mmHg 81%
03:00 -8°C° 0 mm 3 m/s 763 mmHg 81%
04:00 -8°C° 0 mm 3 m/s 762 mmHg 81%
05:00 -9°C° 0 mm 4 m/s 762 mmHg 81%
06:00 -9°C° 0 mm 4 m/s 762 mmHg 80%
07:00 -9°C° 0 mm 4 m/s 763 mmHg 80%
08:00 -9°C° 0 mm 4 m/s 763 mmHg 81%
09:00 -9°C° 0 mm 4 m/s 763 mmHg 81%
10:00 -9°C° 0 mm 4 m/s 763 mmHg 79%
11:00 -9°C° 0 mm 4 m/s 763 mmHg 78%
12:00 -8°C° 0 mm 4 m/s 763 mmHg 76%
13:00 -7°C° 0 mm 3 m/s 763 mmHg 77%
14:00 -7°C° 0 mm 3 m/s 763 mmHg 77%
15:00 -7°C° 0 mm 3 m/s 763 mmHg 78%
16:00 -8°C° 0 mm 3 m/s 763 mmHg 79%
17:00 -8°C° 0 mm 3 m/s 763 mmHg 80%
18:00 -9°C° 0 mm 3 m/s 763 mmHg 81%
19:00 -9°C° 0 mm 3 m/s 763 mmHg 80%
20:00 -9°C° 0 mm 3 m/s 764 mmHg 80%
21:00 -9°C° 0 mm 3 m/s 764 mmHg 80%
22:00 -9°C° 0 mm 3 m/s 764 mmHg 79%
23:00 -9°C° 0 mm 3 m/s 764 mmHg 79%
Mostrar mais

Necessitamos do seu Consentimento

A Meteoprog e os seus Fornecedores de Serviços podem armazenar e aceder a dados pessoais como cookies, identificadores do dispositivo ou outras tecnologias semelhantes existentes no seu dispositivo e processar estes dados para personalizar conteúdos e anúncios, assim como funcionalidades nas redes sociais e análise de tráfego.

  • Armazenar e/ou aceder a informações no seu dispositivo

    Os cookies, identificadores do dispositivo ou outras informações podem ser armazenados ou acedidos no seu dispositivo, para os fins acima indicados.

  • Anúncios e conteúdos personalizados, medição de anúncios e conteúdos, dados sobre o público-alvo e desenvolvimento de produtos

    Os anúncios e os conteúdos podem ser personalizados com base num perfil. Podem ser adicionados dados adicionais para uma maior personalização dos anúncios e dos conteúdos. A eficácia dos anúncios e dos conteúdos pode ser medida. Podem ser obtidas informações sobre o público que visualizou os anúncios e os conteúdos. Estes dados podem ser usados para desenvolver ou melhorar sistemas, softwares ou a experiência do utilizador.

Ao clicar em "Eu concordo”, permitirá o uso de cookies, identificadores do dispositivo e web beacons mencionados ou outras tecnologias semelhantes. As configurações do navegador do seu dispositivo podem ser alteradas.

Para certos fins, podem ser invocados interesses legítimos ao invés de consentimento. Pode ler mais informação sobre este assunto na nossa Política de Privacidade e Cookies.